DW9558 Weather Reports


Display with metric or nautical units.
time (UTC)temp
F
wind
direction
speed
MPH
gust
MPH
rain 1hr
in
rain 24hr
in
rain mn
in
humidity
%
barometer
mb
20260906131515 58 188 0.0 0.0 0.00 0.00 0.00 80 1019.3
20260906130014 58 188 0.0 4.0 0.00 0.00 0.00 79 1019.1
20260906124513 59 188 0.0 4.0 0.00 0.00 0.00 78 1019.1
20260906123011 59 188 0.0 2.0 0.00 0.00 0.00 78 1019.0
20260906121510 59 188 0.0 3.0 0.00 0.00 0.00 78 1019.0
20260906120011 59 188 0.0 3.0 0.00 0.00 0.00 78 1019.1
20260906114525 59 188 0.0 3.0 0.00 0.00 0.00 78 1019.2
20260906113008 59 188 0.0 0.0 0.00 0.00 0.00 78 1019.1
20260906111506 60 188 0.0 0.0 0.00 0.00 0.00 76 1019.0
20260906110005 60 188 0.0 0.0 0.00 0.00 0.00 76 1018.9
20260906104504 60 188 0.0 0.0 0.00 0.00 0.00 74 1018.9
20260906103002 60 188 0.0 0.0 0.00 0.00 0.00 73 1019.0
20260906101600 60 188 0.0 2.0 0.00 0.00 0.00 72 1019.0
20260906100104 60 188 0.0 0.0 0.00 0.00 0.00 72 1019.1
20260906094614 60 188 0.0 0.0 0.00 0.00 0.00 72 1019.1
20260906093130 61 188 0.0 0.0 0.00 0.00 0.00 71 1019.2
20260906091608 61 188 0.0 0.0 0.00 0.00 0.00 71 1019.1
20260906090057 61 188 0.0 0.0 0.00 0.00 0.00 71 1019.1
20260906084555 61 188 0.0 0.0 0.00 0.00 0.00 70 1019.2
20260906083054 61 188 0.0 3.0 0.00 0.00 0.00 70 1019.4
20260906081553 61 188 0.0 4.0 0.00 0.00 0.00 70 1019.3
20260906080053 62 188 0.0 2.0 0.00 0.00 0.00 69 1019.2
20260906074550 62 188 0.0 0.0 0.00 0.00 0.00 67 1019.2
20260906073046 63 188 0.0 0.0 0.00 0.00 0.00 65 1019.1
20260906071542 63 188 0.0 0.0 0.00 0.00 0.00 63 1019.1
20260906070040 64 188 0.0 0.0 0.00 0.00 0.00 62 1019.2
20260906064539 64 188 0.0 0.0 0.00 0.00 0.00 60 1019.1
20260906063039 65 188 0.0 1.0 0.00 0.00 0.00 59 1019.1
20260906061538 66 188 0.0 4.0 0.00 0.00 0.00 57 1019.1
20260906060038 66 188 0.0 0.0 0.00 0.00 0.00 55 1019.2
20260906054541 67 188 0.0 3.0 0.00 0.00 0.00 53 1019.3
20260906053040 68 188 0.0 3.0 0.00 0.00 0.00 51 1019.3
20260906051548 69 188 0.0 3.0 0.00 0.00 0.00 47 1019.2
20260906050036 69 188 0.0 4.0 0.00 0.00 0.00 44 1019.3
20260906044536 70 188 0.0 4.0 0.00 0.00 0.00 42 1019.1
20260906043035 71 188 0.0 3.0 0.00 0.00 0.00 42 1019.0
20260906041537 71 188 0.0 2.0 0.00 0.00 0.00 43 1019.0
20260906040034 72 188 0.0 4.0 0.00 0.00 0.00 43 1018.9
20260906034534 73 188 0.0 4.0 0.00 0.00 0.00 43 1018.6
20260906033044 73 189 0.0 4.0 0.00 0.00 0.00 43 1018.5
20260906031538 74 189 0.0 5.0 0.00 0.00 0.00 43 1018.4
20260906030033 75 189 0.0 4.0 0.00 0.00 0.00 43 1018.2
20260906024545 76 188 2.0 6.0 0.00 0.00 0.00 42 1018.2
20260906023032 77 188 1.0 6.0 0.00 0.00 0.00 41 1018.2
20260906021532 78 188 1.0 5.0 0.00 0.00 0.00 40 1018.2
20260906020031 79 188 1.0 4.0 0.00 0.00 0.00 39 1018.1
20260906014544 80 188 0.0 8.0 0.00 0.00 0.00 37 1018.1
20260906013041 80 188 1.0 5.0 0.00 0.00 0.00 31 1018.1
20260906011529 81 188 1.0 5.0 0.00 0.00 0.00 30 1018.2
20260906010029 81 188 0.0 8.0 0.00 0.00 0.00 30 1018.2
20260906004529 82 188 1.0 5.0 0.00 0.00 0.00 30 1018.2
20260906003027 83 188 2.0 5.0 0.00 0.00 0.00 29 1018.3
20260906001526 83 188 1.0 6.0 0.00 0.00 0.00 31 1018.1
20260906000022 83 188 1.0 4.0 0.00 0.00 0.00 34 1018.2
20260905234519 82 188 1.0 5.0 0.00 0.00 0.00 35 1018.3
20260905233018 82 188 1.0 5.0 0.00 0.00 0.00 35 1018.3
20260905231517 82 188 1.0 4.0 0.00 0.00 0.00 34 1018.4
20260905230015 83 188 1.0 7.0 0.00 0.00 0.00 34 1018.5
20260905224514 83 188 1.0 5.0 0.00 0.00 0.00 34 1018.6
20260905223011 83 188 0.0 4.0 0.00 0.00 0.00 34 1018.8
20260905221510 82 188 1.0 4.0 0.00 0.00 0.00 34 1018.8
20260905220008 82 188 0.0 5.0 0.00 0.00 0.00 34 1019.0
20260905214504 81 188 0.0 4.0 0.00 0.00 0.00 36 1019.2
20260905213001 80 188 1.0 4.0 0.00 0.00 0.00 35 1019.4
20260905211602 81 188 0.0 3.0 0.00 0.00 0.00 36 1019.6
20260905210059 80 188 0.0 6.0 0.00 0.00 0.00 37 1019.7
20260905204555 79 188 0.0 4.0 0.00 0.00 0.00 40 1019.8
20260905203054 78 188 0.0 5.0 0.00 0.00 0.00 42 1019.9
20260905201609 78 188 2.0 8.0 0.00 0.00 0.00 41 1020.0
20260905200048 77 188 0.0 3.0 0.00 0.00 0.00 44 1020.0
20260905194546 76 188 1.0 4.0 0.00 0.00 0.00 45 1020.3
20260905193049 76 188 0.0 3.0 0.00 0.00 0.00 47 1020.4
20260905191540 75 192 0.0 4.0 0.00 0.00 0.00 47 1020.5
20260905190038 75 192 0.0 7.0 0.00 0.00 0.00 50 1020.5
20260905184542 74 192 0.0 4.0 0.00 0.00 0.00 52 1020.6
20260905183032 74 192 0.0 2.0 0.00 0.00 0.00 53 1020.7
20260905181529 72 192 0.0 2.0 0.00 0.00 0.00 55 1020.7
20260905180025 71 192 0.0 0.0 0.00 0.00 0.00 58 1020.6
20260905174522 70 192 0.0 0.0 0.00 0.00 0.00 59 1020.7
20260905173019 70 192 0.0 0.0 0.00 0.00 0.00 62 1020.6
20260905171517 69 192 0.0 0.0 0.00 0.00 0.00 64 1020.5
20260905170012 67 192 0.0 0.0 0.00 0.00 0.00 68 1020.4
20260905164508 66 192 0.0 0.0 0.00 0.00 0.00 70 1020.5
20260905163006 65 192 0.0 0.0 0.00 0.00 0.00 72 1020.5
20260905161502 64 192 0.0 0.0 0.00 0.00 0.00 73 1020.5
20260905160058 63 192 0.0 0.0 0.00 0.00 0.00 75 1020.4
20260905154609 62 192 0.0 0.0 0.00 0.00 0.00 77 1020.5
20260905153051 61 192 0.0 0.0 0.00 0.00 0.00 79 1020.6
20260905151545 60 192 0.0 0.0 0.00 0.00 0.00 80 1020.4
20260905150040 59 192 0.0 0.0 0.00 0.00 0.00 82 1020.4
20260905144536 58 192 0.0 0.0 0.00 0.00 0.00 84 1020.5
20260905143033 56 192 0.0 0.0 0.00 0.00 0.00 88 1020.3
20260905141534 55 192 0.0 0.0 0.00 0.00 0.00 88 1020.2
20260905140025 55 192 0.0 0.0 0.00 0.00 0.00 87 1020.0
20260905134523 55 192 0.0 0.0 0.00 0.00 0.00 87 1020.0
20260905133022 55 192 0.0 0.0 0.00 0.00 0.00 87 1020.0